[[{"header":{"parameterUnit":"m.s-1","parameterCategory":1,"la1":30.2991,"la2":30.254,"lo1":-89.0895,"lo2":-89.0444,"dy":0.0017,"dx":0.0017,"nx":28,"ny":28,"refTime":"2023-07-27T03:00:00:Z","depth":0,"parameterNumber":2,"parameterNumberName":"U-component_of_WINDS"},"data":[0,0,0,0,0,0,0,0,0,0,0,0,0,0,0,0,0,0,0,0,0,0,0,0,0,0,0,0,0,0,0,0,0,0,0,0,0,0,0,0,0,0,0,0,0,0,0,0,0,0,0,0,0,0,0,0,0,0,-1.5101,-1.51,0,-1.498,-1.4979,-1.4978,-1.4904,-1.4904,-1.4903,-1.4903,-1.4776,-1.4773,-1.477,0,0,0,0,0,0,0,0,0,0,0,0,0,-1.5267,-1.5265,-1.5101,-1.51,-1.5098,-1.4981,-1.4979,-1.4977,-1.4904,-1.4904,-1.4903,-1.4903,-1.4777,-1.4773,-1.477,0,0,0,0,0,0,0,0,0,0,0,0,0,-1.5176,-1.5264,-1.5101,-1.5048,-1.5042,-1.4981,-1.4979,-1.4977,-1.4904,-1.4904,-1.4903,-1.4903,-1.4778,-1.4774,-1.4769,-1.4752,0,0,-1.4755,-1.4753,0,0,0,0,0,0,0,0,-1.5181,-1.517,-1.5057,-1.5051,-1.5044,-1.4957,-1.4991,-1.4901,-1.4904,-1.4956,-1.4903,-1.4902,-1.4836,-1.4827,-1.4805,-1.4746,-1.474,-1.4755,-1.4752,-1.475,-1.4749,0,0,0,0,0,0,0,-1.5187,-1.5174,-1.5053,-1.5055,-1.5048,-1.5029,-1.5015,-1.4973,-1.4901,-1.4952,-1.4946,-1.4933,-1.4833,-1.481,-1.4802,-1.4738,-1.4755,-1.4751,-1.4748,-1.4746,-1.466,-1.466,0,0,0,0,0,0,-1.5203,-1.518,-1.5057,-1.505,-1.5113,-1.5027,-1.5011,-1.4985,-1.4901,-1.4888,-1.4933,-1.493,-1.4818,-1.4807,-1.4797,-1.4771,-1.475,-1.4746,-1.4743,-1.4659,-1.466,-1.466,0,0,0,0,0,0,-1.5206,-1.5192,-1.5062,-1.5113,-1.5095,-1.5024,-1.4996,-1.4983,-1.496,-1.4887,-1.4874,-1.4924,-1.4817,-1.4803,-1.4764,-1.4766,-1.4744,-1.474,-1.4659,-1.466,-1.466,-1.472,0,0,0,0,0,0,-1.5212,-1.5194,-1.5187,-1.5114,-1.5093,-1.5031,-1.4996,-1.4981,-1.4953,-1.4947,-1.4874,-1.4862,-1.4816,-1.4771,-1.476,-1.4759,-1.4736,-1.4658,-1.4659,-1.466,-1.4717,-1.4723,-1.4727,0,0,0,0,0,-1.5218,-1.5207,-1.5187,-1.5172,-1.5082,-1.5032,-1.502,-1.4968,-1.4953,-1.4945,-1.4899,-1.4864,-1.4768,-1.4768,-1.4754,-1.4752,-1.4658,-1.4659,-1.466,-1.4715,-1.4722,-1.4727,0,0,0,0,0,0,-1.5281,-1.5197,-1.5173,-1.5139,-1.5093,-1.5019,-1.5007,-1.4976,-1.4932,-1.4928,-1.4865,-1.4849,-1.4816,-1.478,-1.4782,-1.4732,-1.4709,-1.4708,-1.4756,-1.4761,-1.4766,-1.4775,-1.4732,0,0,0,0,0,-1.5291,-1.5258,-1.5186,-1.5163,-1.5141,-1.5079,-1.5055,-1.5019,-1.4969,-1.4948,-1.4899,-1.4851,-1.481,-1.4784,-1.4742,-1.4713,-1.4696,-1.4705,-1.471,-1.4714,-1.4713,-1.4696,-1.4699,-1.4664,-1.4664,-1.4664,0,0,-1.5311,-1.5261,-1.5243,-1.5174,-1.5134,-1.5101,-1.5063,-1.5028,-1.5002,-1.4943,-1.4903,-1.4865,-1.4807,-1.4773,-1.4756,-1.4742,-1.4719,-1.4716,-1.4719,-1.4715,-1.4697,-1.47,-1.4703,-1.4664,-1.4664,-1.4664,0,0,-1.533,-1.5289,-1.5266,-1.5228,-1.5169,-1.5128,-1.5123,-1.5055,-1.5028,-1.4987,-1.4942,-1.4911,-1.4841,-1.4802,-1.4773,-1.4782,-1.4748,-1.477,-1.4794,-1.4778,-1.4781,-1.4783,-1.4786,-1.4788,-1.4769,-1.477,-1.477,0,-1.5362,-1.531,-1.5258,-1.5226,-1.5197,-1.5144,-1.512,-1.5086,-1.5016,-1.4997,-1.4984,-1.4897,-1.4854,-1.4811,-1.4813,-1.4792,-1.4784,-1.4777,-1.4785,-1.4786,-1.4788,-1.479,-1.4791,-1.4772,-1.4772,-1.4772,-1.4772,0,-1.5352,-1.5317,-1.5306,-1.5242,-1.5211,-1.5184,-1.5127,-1.5103,-1.5071,-1.5032,-1.4992,-1.494,-1.4887,-1.4874,-1.4842,-1.4827,-1.482,-1.4797,-1.4773,-1.4795,-1.4796,-1.4796,-1.4777,-1.4776,-1.4775,-1.4774,0,0,-1.5405,-1.5315,-1.5311,-1.5282,-1.5215,-1.5186,-1.5157,-1.5107,-1.5088,-1.5043,-1.5016,-1.4961,-1.494,-1.4907,-1.487,-1.4856,-1.4867,-1.4834,-1.4832,-1.4842,-1.4847,-1.4865,-1.4866,-1.4845,-1.4845,-1.4845,-1.4852,0,-1.5413,-1.5359,-1.5312,-1.5275,-1.5242,-1.5193,-1.5167,-1.5124,-1.5087,-1.5054,-1.5013,-1.4974,-1.4949,-1.4929,-1.4914,-1.4869,-1.4867,-1.4868,-1.4819,-1.4818,-1.4834,-1.4866,-1.4884,-1.4893,-1.4852,-1.4852,-1.4852,0,-1.5415,-1.5374,-1.5334,-1.5272,-1.5256,-1.5235,-1.5186,-1.5155,-1.5105,-1.5079,-1.5045,-1.5007,-1.4974,-1.4955,-1.4909,-1.4911,-1.4889,-1.4864,-1.4863,-1.4855,-1.4835,-1.4859,-1.4894,-1.4896,-1.4852,-1.4852,-1.4852,0,-1.5458,-1.5392,-1.5359,-1.5336,-1.5263,-1.5249,-1.5218,-1.5167,-1.5141,-1.5099,-1.5081,-1.5035,-1.501,-1.4975,-1.4926,-1.4917,-1.4885,-1.4862,-1.4863,-1.4864,-1.4856,-1.4857,-1.4888,-1.4844,-1.4844,-1.4844,-1.4844,0,-1.5471,-1.5448,-1.5378,-1.5358,-1.5331,-1.5278,-1.5253,-1.5218,-1.5174,-1.5146,-1.5101,-1.5076,-1.5013,-1.4981,-1.4942,-1.491,-1.4899,-1.4877,-1.4867,-1.488,-1.4883,-1.4863,-1.4861,-1.4845,-1.4845,-1.4845,-1.4845,0,-1.5513,-1.5464,-1.5426,-1.5361,-1.5344,-1.5328,-1.5272,-1.5251,-1.5213,-1.5178,-1.5167,-1.5107,-1.5067,-1.5016,-1.4958,-1.4933,-1.4904,-1.4889,-1.4922,-1.4915,-1.4919,-1.4919,-1.4937,-1.4937,-1.4895,-1.4895,-1.4896,0,-1.5524,-1.5505,-1.544,-1.5419,-1.5389,-1.5355,-1.5329,-1.5277,-1.5251,-1.5195,-1.518,-1.5137,-1.5099,-1.5037,-1.4988,-1.4944,-1.4927,-1.4937,-1.492,-1.4935,-1.4927,-1.4928,-1.4926,-1.494,-1.4941,-1.4942,-1.4942,0,-1.5549,-1.5527,-1.5491,-1.5447,-1.5418,-1.538,-1.5341,-1.5326,-1.5266,-1.524,-1.5199,-1.517,-1.5113,-1.507,-1.5021,-1.4988,-1.4955,-1.4949,-1.4946,-1.4959,-1.4978,-1.4968,-1.4932,-1.4948,-1.4947,-1.4947,-1.4946,-1.4946,-1.5575,-1.5557,-1.5508,-1.547,-1.5436,-1.5401,-1.5379,-1.5339,-1.5304,-1.5254,-1.5226,-1.5186,-1.5138,-1.5069,-1.5038,-1.5006,-1.4993,-1.499,-1.4989,-1.4989,-1.4993,-1.4985,-1.4997,-1.4997,-1.4996,-1.4996,-1.4996,0,-1.5597,-1.5565,-1.553,-1.5478,-1.5448,-1.5422,-1.5378,-1.5355,-1.5321,-1.5279,-1.5244,-1.5198,-1.5157,-1.5106,-1.5062,-1.5046,-1.503,-1.5036,-1.5036,-1.5029,-1.5007,-1.5013,-1.505,-1.505,-1.505,-1.505,-1.505,-1.505,-1.5606,-1.5574,-1.5547,-1.5498,-1.5465,-1.5426,-1.5403,-1.5371,-1.5338,-1.5289,-1.5255,-1.5223,-1.5178,-1.5131,-1.5092,-1.5078,-1.5064,-1.5074,-1.5056,-1.5036,-1.5031,-1.5026,-1.5031,-1.5072,-1.5072,-1.5081,-1.5081,-1.5081]},{"header":{"parameterUnit":"m.s-1","parameterCategory":1,"la1":30.2991,"la2":30.254,"lo1":-89.0895,"lo2":-89.0444,"dy":0.0017,"dx":0.0017,"nx":28,"ny":28,"refTime":"2023-07-27T03:00:00:Z","depth":0,"parameterNumber":3,"parameterNumberName":"V-component_of_WINDS"},"data":[0,0,0,0,0,0,0,0,0,0,0,0,0,0,0,0,0,0,0,0,0,0,0,0,0,0,0,0,0,0,0,0,0,0,0,0,0,0,0,0,0,0,0,0,0,0,0,0,0,0,0,0,0,0,0,0,0,0,2.7989,2.799,0,2.8002,2.8002,2.8002,2.8051,2.8052,2.8054,2.8055,2.8064,2.8063,2.8062,0,0,0,0,0,0,0,0,0,0,0,0,0,2.8005,2.8004,2.7989,2.799,2.799,2.8002,2.8002,2.8002,2.8051,2.8053,2.8054,2.8055,2.8064,2.8063,2.8062,0,0,0,0,0,0,0,0,0,0,0,0,0,2.8006,2.8004,2.7989,2.8016,2.8018,2.8002,2.8002,2.8002,2.8051,2.8053,2.8054,2.8056,2.8064,2.8063,2.8062,2.802,0,0,2.8058,2.8058,0,0,0,0,0,0,0,0,2.8006,2.8005,2.8012,2.8014,2.8017,2.8027,2.8011,2.8008,2.805,2.8038,2.8055,2.8057,2.805,2.805,2.8048,2.8021,2.8021,2.8058,2.8057,2.8057,2.8057,0,0,0,0,0,0,0,2.8006,2.8005,2.7994,2.8012,2.8015,2.8026,2.8028,2.8011,2.8034,2.8039,2.8043,2.8044,2.8052,2.805,2.8049,2.8021,2.8058,2.8057,2.8056,2.8056,2.796,2.7959,0,0,0,0,0,0,2.8002,2.8004,2.7994,2.7995,2.8015,2.8024,2.8027,2.8022,2.8035,2.8038,2.8043,2.8046,2.8051,2.805,2.805,2.8002,2.8057,2.8056,2.8055,2.7962,2.796,2.7958,0,0,0,0,0,0,2.8002,2.8001,2.7993,2.8001,2.8001,2.8022,2.8016,2.8021,2.8019,2.8037,2.8041,2.8036,2.8052,2.8051,2.8028,2.8003,2.8055,2.8054,2.7964,2.7961,2.7959,2.7905,0,0,0,0,0,0,2.8003,2.8001,2.7985,2.8,2.8,2.7972,2.8015,2.802,2.8017,2.8022,2.8032,2.8035,2.8053,2.8029,2.8026,2.8002,2.8053,2.7966,2.7963,2.796,2.7909,2.7901,2.7894,0,0,0,0,0,2.8003,2.7969,2.7984,2.7983,2.7982,2.797,2.797,2.7992,2.8015,2.8,2.8011,2.8035,2.8006,2.8026,2.8024,2.7998,2.7968,2.7964,2.796,2.7913,2.7903,2.7894,0,0,0,0,0,0,2.7949,2.7971,2.7989,2.7958,2.7962,2.7979,2.796,2.7981,2.7977,2.7982,2.8009,2.8011,2.7983,2.7988,2.8011,2.7959,2.7991,2.7986,2.7956,2.7947,2.7939,2.7938,2.8052,0,0,0,0,0,2.7934,2.7924,2.7943,2.7915,2.7916,2.7937,2.7933,2.795,2.7955,2.7956,2.7966,2.7969,2.796,2.7954,2.7947,2.7911,2.7913,2.7892,2.7884,2.7878,2.7873,2.7854,2.7845,2.7945,2.7945,2.7945,0,0,2.7902,2.7913,2.7904,2.7904,2.7909,2.7897,2.7938,2.7924,2.7915,2.7954,2.7932,2.794,2.7944,2.7914,2.7901,2.7918,2.7847,2.7873,2.7868,2.7866,2.7849,2.784,2.7831,2.7942,2.7942,2.7943,0,0,2.7837,2.7845,2.7822,2.7827,2.7835,2.7849,2.7844,2.7857,2.7864,2.7843,2.7873,2.7862,2.7847,2.7849,2.7848,2.7786,2.7808,2.7783,2.7743,2.7724,2.7716,2.7709,2.7687,2.7678,2.7779,2.7779,2.7778,0,2.7796,2.778,2.7807,2.7791,2.779,2.7827,2.7803,2.7806,2.781,2.7808,2.7828,2.781,2.7816,2.7787,2.7772,2.777,2.7764,2.7782,2.7715,2.7709,2.7703,2.7682,2.7673,2.7775,2.7776,2.7776,2.7776,0,2.7729,2.7718,2.7698,2.7703,2.77,2.768,2.7704,2.7697,2.7715,2.7727,2.7706,2.7714,2.771,2.7705,2.7721,2.7678,2.7688,2.7711,2.7744,2.769,2.767,2.7662,2.7771,2.7772,2.7773,2.7774,0,0,2.7629,2.7651,2.7643,2.7646,2.7658,2.7649,2.7631,2.7629,2.7622,2.7625,2.761,2.7597,2.7618,2.7617,2.7635,2.7619,2.7569,2.7644,2.7644,2.7629,2.7521,2.7504,2.7494,2.7584,2.7583,2.7581,2.7521,0,2.7567,2.7539,2.7563,2.7529,2.7519,2.7555,2.7539,2.7544,2.7556,2.7548,2.7561,2.7551,2.758,2.758,2.7566,2.7578,2.7547,2.7583,2.7569,2.7568,2.7566,2.7484,2.7465,2.7407,2.7513,2.7512,2.7511,0,2.749,2.7491,2.7457,2.7472,2.7469,2.7454,2.7454,2.7447,2.7454,2.7463,2.7463,2.7485,2.7468,2.7501,2.7478,2.7501,2.7497,2.7502,2.7501,2.7499,2.7536,2.7479,2.7389,2.738,2.75,2.7501,2.7501,0,2.742,2.7412,2.7391,2.7393,2.741,2.7399,2.7405,2.7414,2.7411,2.7411,2.741,2.7407,2.7405,2.7402,2.7423,2.7445,2.7396,2.7431,2.7403,2.7402,2.739,2.739,2.7297,2.7389,2.7389,2.7389,2.7389,0,2.7348,2.7325,2.736,2.7346,2.7322,2.7351,2.7326,2.7336,2.7344,2.7332,2.7363,2.7351,2.738,2.7371,2.7388,2.7365,2.7364,2.7371,2.7375,2.7368,2.7367,2.7365,2.7369,2.7387,2.7387,2.7388,2.7388,0,2.7264,2.7287,2.7266,2.7285,2.7289,2.727,2.7286,2.7274,2.7289,2.7275,2.7273,2.7295,2.7287,2.7308,2.7302,2.7313,2.7281,2.7292,2.7279,2.7282,2.7252,2.7254,2.7153,2.7142,2.7241,2.7241,2.724,0,2.7216,2.72,2.7218,2.7213,2.7219,2.7211,2.7209,2.7236,2.7232,2.724,2.7227,2.7221,2.7218,2.7203,2.7218,2.7214,2.7225,2.719,2.7224,2.7218,2.7224,2.7224,2.7223,2.7182,2.7181,2.718,2.7179,0,2.7128,2.714,2.7137,2.7137,2.7134,2.7135,2.7139,2.7133,2.7162,2.7157,2.715,2.7147,2.7143,2.7137,2.7136,2.7142,2.7165,2.7169,2.7162,2.7153,2.7146,2.7149,2.7258,2.7171,2.7171,2.7172,2.7173,2.7173,2.706,2.7048,2.7059,2.7054,2.706,2.7062,2.7053,2.7067,2.7062,2.7061,2.7078,2.7067,2.7075,2.7077,2.7081,2.7072,2.7088,2.7078,2.7075,2.7072,2.7067,2.7149,2.7072,2.7072,2.7073,2.7073,2.7073,0,2.6973,2.6982,2.6978,2.6983,2.6979,2.7003,2.7008,2.7003,2.6994,2.7,2.6997,2.6989,2.6984,2.6999,2.6996,2.6986,2.6997,2.6984,2.6985,2.6986,2.7053,2.7059,2.6976,2.6976,2.6976,2.6976,2.6976,2.6976,2.6927,2.6907,2.6921,2.6905,2.6914,2.6905,2.6906,2.6909,2.6914,2.6904,2.6901,2.6911,2.6921,2.6919,2.6916,2.692,2.6917,2.6901,2.6909,2.6972,2.6981,2.699,2.6996,2.69,2.69,2.6842,2.6842,2.6841]}]]